Погода в Чартаке

Узбекистан     40°51′21″N   71°09′28″E
темп.,
°C
ветер,
м/с
пор.,
м/с
влажн.,
%
обл.,
%
осадки,
мм/ч
давл.,
гПа
погр.,
м
27 февраля, сб
сб2723:00−1ссв243274 0.0 1032120
02:00−1всв1235100 0.0 103029
05:00−1в1135100 0.0 103025
08:000всв1133100 0.0 103085
11:00+2юв1125100 0.0 1029725
14:00+4ююв1120100 0.0 10291028
17:00+5в222098 0.0 10321081
20:00+3св352791 0.0 1035155
28 февраля, вс
вс2823:00+1св374058 0.0 1035181
02:000ссв23393 0.0 103359
05:00−1юв22452 0.0 103223
08:000вюв11450 0.0 103055
11:00+5всв23310 0.0 1025690
14:00+9всв23240 0.0 10221039
17:00+9в22240 0.0 1022944
20:00+6всв22310 0.0 102525
1 марта, пн
пн123:00+4всв34440 0.0 102580
02:00+3всв234633 0.0 102441
05:00+2всв224567 0.0 102323
08:00+3всв2440100 0.0 1024147
11:00+8всв332595 0.0 1022545
14:00+12всв231714 0.0 1020881
17:00+13всв22167 0.0 1021831
20:00+9в11230 0.0 102422
2 марта, вт
вт223:00+8всв23260 0.0 102522
02:00+6всв334431 0.0 102546
05:00+5всв234266 0.0 102443
08:00+6всв2336100 0.0 1024114
11:00+11в2323100 0.0 1022483
14:00+14всв2218100 0.0 1021884
17:00+14юв0118100 0.0 1021776
20:00+12ссз1122100 0.0 102322
3 марта, ср
ср323:00+11св2227100 0.0 102322
02:00+10в1131100 0.0 102222
05:00+9св1133100 0.0 102122
08:00+10юв1135100 0.0 102125
11:00+13всв1239100 0.0 10201015
14:00+15ю1129100 0.0 10181717
17:00+15зюз3322100 0.0 10181476
20:00+13зсз1438100 0.0 1020199